This is the latest recevied weather packets stored in our database for station/object KB2M. If no packets are shown the sender has not sent any weather packets the latest 1 day(s).
| Time | Temp. | Humidity | Pressure | Rain* | Wind** | Luminosity | Snow |
|---|---|---|---|---|---|---|---|
| 1778022055 | 24.44° C | 56% | 1017.2 hPa | 0 mm | 1.79 m/s, 68° | - | - |
| 1778021455 | 24.44° C | 56% | 1017.2 hPa | 0 mm | 1.79 m/s, 78° | - | - |
| 1778020854 | 24.44° C | 55% | 1017.2 hPa | 0 mm | 2.24 m/s, 100° | - | - |
| 1778020254 | 24.44° C | 55% | 1017.2 hPa | 0 mm | 2.68 m/s, 61° | - | - |
| 1778019653 | 24.44° C | 55% | 1017.2 hPa | 0 mm | 2.24 m/s, 84° | - | - |
| 1778019053 | 24.44° C | 55% | 1017.2 hPa | 0 mm | 2.24 m/s, 81° | - | - |
| 1778018452 | 24.44° C | 55% | 1017.2 hPa | 0 mm | 2.24 m/s, 54° | - | - |
| 1778017851 | 24.44° C | 54% | 1017.6 hPa | 0 mm | 2.24 m/s, 72° | - | - |
| 1778017251 | 24.44° C | 54% | 1017.2 hPa | 0 mm | 2.24 m/s, 69° | - | - |
| 1778016650 | 24.44° C | 54% | 1017.6 hPa | 0 mm | 2.24 m/s, 78° | - | - |
| 1778016050 | 24.44° C | 52% | 1017.2 hPa | 0 mm | 2.24 m/s, 52° | - | - |
| 1778015449 | 24.44° C | 50% | 1017.2 hPa | 0 mm | 2.68 m/s, 56° | - | - |
| 1778014848 | 24.44° C | 51% | 1017.6 hPa | 0 mm | 2.68 m/s, 45° | - | - |
| 1778014248 | 24.44° C | 48% | 1017.6 hPa | 0 mm | 2.68 m/s, 49° | - | - |
| 1778013648 | 24.44° C | 51% | 1017.6 hPa | 0 mm | 3.13 m/s, 41° | - | - |
| 1778013047 | 24.44° C | 55% | 1017.6 hPa | 0 mm | 2.68 m/s, 40° | - | - |
| 1778012446 | 24.44° C | 56% | 1017.6 hPa | 0 mm | 3.13 m/s, 56° | - | - |
| 1778011846 | 24.44° C | 55% | 1017.6 hPa | 0 mm | 3.13 m/s, 44° | - | - |
| 1778011245 | 25° C | 53% | 1017.6 hPa | 0 mm | 2.68 m/s, 52° | - | - |
| 1778010644 | 24.44° C | 54% | 1017.9 hPa | 0 mm | 2.68 m/s, 46° | - | - |
| 1778010044 | 24.44° C | 54% | 1018.2 hPa | 0 mm | 3.13 m/s, 47° | - | - |
| 1778009443 | 25° C | 53% | 1018.2 hPa | 0 mm | 3.13 m/s, 41° | - | - |
| 1778008842 | 24.44° C | 56% | 1018.2 hPa | 0 mm | 2.24 m/s, 64° | - | - |
| 1778008242 | 25° C | 54% | 1018.2 hPa | 0 mm | 2.68 m/s, 70° | - | - |
| 1778007641 | 25° C | 54% | 1018.6 hPa | 0 mm | 2.24 m/s, 40° | - | - |
* Rain latest hour (hover to see other rain measurements)
** Current wind speed in m/s (hover to see current wind gust speed)